Location: Wells
(51.2093°N, 2.6446°W)
Time: 07:49:20
(UTC+01:00)

PCSat - Pass Details

Date: 15 March 2026
Orbit: 780 x 790 km, 67.1° (Epoch: 13 April)

Event Time Altitude Azimuth Distance (km) Brightness Sun altitude
Exits shadow 00:31:10 18° 20° (NNE) 1,890 12.0 -40.9°
Drops below altitude 10° 00:32:37 10° 29° (NNE) 2,364 12.6 -40.9°
Sets 00:35:13 0° 38° (NE) 3,297 13.4 -40.9°
